TimeEDT,TemperatureF,Dew PointF,Humidity,Sea Level PressureIn,VisibilityMPH,Wind Direction,Wind SpeedMPH,Gust SpeedMPH,PrecipitationIn,Events,Conditions,WindDirDegrees,DateUTC
12:53 AM,72.0,64.9,78,29.88,10.0,South,10.4,-,N/A,,Overcast,180,2013-09-20 04:53:00
1:53 AM,72.0,64.0,76,29.86,10.0,South,10.4,-,N/A,,Partly Cloudy,190,2013-09-20 05:53:00
2:53 AM,72.0,64.9,78,29.85,10.0,South,9.2,-,N/A,,Mostly Cloudy,190,2013-09-20 06:53:00
3:53 AM,71.1,66.0,84,29.83,9.0,South,10.4,-,N/A,,Mostly Cloudy,190,2013-09-20 07:53:00
4:53 AM,72.0,66.0,81,29.82,8.0,South,11.5,-,N/A,,Partly Cloudy,190,2013-09-20 08:53:00
5:53 AM,72.0,66.0,81,29.82,10.0,South,6.9,-,0.00,,Mostly Cloudy,190,2013-09-20 09:53:00
6:53 AM,72.0,66.9,84,29.80,8.0,South,8.1,-,N/A,,Partly Cloudy,190,2013-09-20 10:53:00
7:53 AM,72.0,68.0,87,29.81,4.0,South,8.1,-,N/A,,Partly Cloudy,190,2013-09-20 11:53:00
8:17 AM,73.4,68.0,83,29.81,4.0,South,11.5,18.4,N/A,,Haze,170,2013-09-20 12:17:00
8:53 AM,73.9,69.1,85,29.81,5.0,SSW,9.2,-,N/A,,Haze,200,2013-09-20 12:53:00
9:53 AM,75.0,69.1,82,29.82,4.0,SSW,5.8,-,N/A,,Haze,210,2013-09-20 13:53:00
10:17 AM,75.2,69.8,83,29.82,5.0,SSW,9.2,-,N/A,,Haze,200,2013-09-20 14:17:00
10:40 AM,75.2,69.8,83,29.82,5.0,SSW,11.5,-,N/A,,Haze,210,2013-09-20 14:40:00
10:53 AM,75.9,69.1,79,29.81,5.0,SW,9.2,-,N/A,,Haze,230,2013-09-20 14:53:00
11:53 AM,79.0,69.1,72,29.78,7.0,SSW,10.4,18.4,N/A,,Mostly Cloudy,210,2013-09-20 15:53:00
12:36 PM,78.8,68.0,69,29.79,9.0,SW,8.1,17.3,N/A,,Mostly Cloudy,230,2013-09-20 16:36:00
12:53 PM,79.0,66.9,66,29.78,10.0,SW,12.7,-,N/A,,Mostly Cloudy,230,2013-09-20 16:53:00
1:00 PM,78.8,66.2,65,29.79,10.0,WSW,10.4,19.6,N/A,,Overcast,250,2013-09-20 17:00:00
1:17 PM,80.6,68.0,65,29.79,9.0,WSW,8.1,-,N/A,,Mostly Cloudy,250,2013-09-20 17:17:00
1:53 PM,78.1,66.0,66,29.77,10.0,WSW,11.5,-,N/A,,Scattered Clouds,250,2013-09-20 17:53:00
2:53 PM,77.0,64.0,64,29.76,10.0,WSW,11.5,-,N/A,,Mostly Cloudy,250,2013-09-20 18:53:00
3:53 PM,73.0,66.0,79,29.76,7.0,WSW,10.4,-,0.00,Rain,Light Rain,240,2013-09-20 19:53:00
4:04 PM,73.4,66.2,78,29.77,9.0,SW,5.8,-,0.00,Rain,Light Rain,220,2013-09-20 20:04:00
4:33 PM,73.4,66.2,78,29.77,10.0,SW,8.1,-,0.00,,Mostly Cloudy,230,2013-09-20 20:33:00
4:53 PM,73.0,66.9,81,29.75,10.0,SW,5.8,-,0.00,Rain,Light Rain,220,2013-09-20 20:53:00
5:49 PM,71.6,66.2,83,29.76,10.0,SW,5.8,-,0.00,,Mostly Cloudy,220,2013-09-20 21:49:00
5:53 PM,72.0,66.0,81,29.75,10.0,SW,4.6,-,0.00,,Mostly Cloudy,220,2013-09-20 21:53:00
6:18 PM,71.6,66.2,83,29.75,10.0,SSW,4.6,-,N/A,,Overcast,210,2013-09-20 22:18:00
6:53 PM,71.1,66.0,84,29.74,10.0,SW,4.6,-,0.00,,Scattered Clouds,220,2013-09-20 22:53:00
7:53 PM,70.0,66.0,87,29.73,10.0,SW,4.6,-,N/A,,Overcast,220,2013-09-20 23:53:00
8:53 PM,70.0,66.0,87,29.74,10.0,SW,5.8,-,N/A,,Overcast,230,2013-09-21 00:53:00
9:22 PM,69.8,64.4,83,29.75,10.0,SW,5.8,-,0.00,Rain,Light Rain,230,2013-09-21 01:22:00
9:48 PM,69.8,64.4,83,29.75,10.0,WSW,4.6,-,0.00,,Overcast,250,2013-09-21 01:48:00
9:53 PM,70.0,64.9,84,29.75,10.0,WSW,5.8,-,0.00,,Overcast,240,2013-09-21 01:53:00
10:53 PM,69.1,64.9,87,29.74,8.0,WSW,3.5,-,0.01,Rain,Light Rain,240,2013-09-21 02:53:00
11:53 PM,68.0,64.9,90,29.73,7.0,Calm,Calm,-,0.00,,Scattered Clouds,0,2013-09-21 03:53:00